Theta_e
315 325 329 344 347 348 347 347 347 348 353 353 353 354 353 353 353 352 349 348 346 349 345 347 348 354 348 350 349 348 346 343
309 310 336 346 341 334 340 344 345 348 351 349 349 350 350 350 351 351 347 344 342 343 344 343 346 345 343 339 340 340 338 337
306 308 344 342 331 332 336 336 334 343 350 348 344 346 347 347 346 349 347 343 341 345 341 343 344 343 342 337 336 336 334 332
304 314 338 336 334 330 335 336 334 339 348 349 346 348 345 345 345 348 349 347 342 346 343 345 344 344 341 340 339 336 334 333
306 314 339 335 334 330 331 334 336 342 349 350 349 350 350 349 349 349 350 350 348 349 348 343 342 344 342 346 341 343 340 338
309 317 341 332 330 333 335 343 344 346 343 348 352 349 351 349 346 348 352 352 347 344 343 342 346 345 344 344 342 340 336 330
310 317 342 336 332 332 339 340 344 344 340 342 351 351 348 348 342 340 346 348 346 344 342 340 343 340 336 335 339 336 338 334
312 327 341 343 335 337 340 340 340 341 343 350 351 353 350 345 336 338 348 345 345 342 338 335 337 334 332 335 326 325 329 335
319 333 334 340 345 344 340 343 345 348 348 342 340 340 343 346 348 348 345 345 343 333 328 328 327 331 329 327 326 323 324 324
316 326 337 337 337 339 344 344 345 345 345 339 339 338 342 342 343 345 346 344 342 333 327 327 335 332 328 326 325 321 321 324
325 331 334 337 336 337 338 336 337 337 341 338 337 336 333 335 337 335 336 345 346 336 335 336 340 333 327 325 323 319 316 320
329 329 327 328 328 329 328 329 329 330 333 338 337 333 329 329 328 328 330 334 337 335 334 339 335 323 321 322 325 321 318 316
323 322 324 325 325 325 325 324 324 324 325 327 323 321 322 325 322 320 321 321 325 325 328 330 332 326 323 322 327 322 321 319
319 321 322 321 322 321 321 321 321 322 322 322 321 319 319 318 316 318 318 318 320 323 324 322 321 322 321 325 331 327 324 326
315 316 316 318 318 319 320 318 318 319 320 319 319 317 317 317 316 315 314 314 315 318 318 316 316 316 317 318 319 321 323 326
313 314 314 314 316 316 317 316 316 317 317 316 317 316 315 315 316 315 314 315 314 316 315 316 316 316 315 315 316 316 318 318
311 312 312 313 313 313 314 314 313 314 315 315 314 314 314 314 314 314 313 314 316 314 314 313 314 315 314 313 312 312 314 315
311 311 311 312 312 312 313 312 312 313 312 312 313 313 314 313 313 312 311 312 312 312 311 310 309 309 308 307 306 307 307 308
309 310 310 311 312 311 310 309 310 310 310 311 311 311 312 312 311 311 311 310 309 308 308 307 307 306 306 304 304 305 305 304
308 308 308 307 307 309 308 308 307 308 309 310 310 311 311 310 310 310 310 307 307 307 307 306 307 307 305 305 304 305 305 304
Wind_Speed
7 7 4 9 13 8 10 8 5 5 9 6 3 3 4 4 7 7 6 5 4 5 3 4 4 7 3 5 5 4 5 4
8 9 9 15 20 15 13 13 9 12 2 5 6 5 4 4 6 9 6 4 4 5 4 5 5 4 6 5 4 6 8 9
6 8 16 19 19 16 19 12 10 3 4 5 4 7 7 8 7 8 7 6 5 4 5 5 6 5 6 5 6 7 7 8
5 4 16 18 17 17 13 13 14 16 13 11 8 5 8 5 6 8 10 6 4 4 5 5 5 6 5 6 7 6 7 7
10 7 18 21 18 19 19 21 19 12 9 7 3 6 6 7 5 5 8 6 5 4 1 2 2 3 6 5 6 4 1 3
8 7 19 15 17 18 17 15 15 10 8 7 8 4 5 6 6 4 5 2 8 8 6 4 3 5 9 11 4 5 3 1
8 10 16 16 17 15 17 15 11 11 11 6 6 4 4 2 1 1 6 7 8 6 5 6 1 3 4 2 13 9 8 6
10 12 17 16 16 15 15 11 10 5 3 4 1 3 2 2 1 2 5 5 7 7 6 6 3 3 4 7 8 7 7 7
8 14 17 14 12 15 14 13 14 12 8 5 4 4 4 3 4 6 6 6 7 5 3 3 2 5 9 7 4 4 3 3
7 10 14 14 12 10 16 9 8 4 3 2 3 4 2 3 2 3 3 3 4 4 4 4 5 4 8 5 4 3 3 3
18 17 14 16 14 13 13 9 8 6 3 3 2 4 4 4 3 3 3 3 2 5 6 5 6 6 6 6 5 6 2 3
17 16 15 15 12 12 12 11 9 8 8 6 6 4 5 2 3 2 4 4 4 6 6 3 6 3 2 3 2 3 3 5
18 17 16 13 12 11 9 9 9 8 9 8 6 7 4 3 3 6 6 7 9 7 7 7 5 4 4 5 4 5 5 7
18 15 15 12 10 9 8 9 7 8 8 8 8 8 6 5 6 5 5 4 4 6 7 7 6 5 3 0 4 5 6 7
14 13 11 10 10 8 8 9 7 7 8 8 7 7 8 9 7 4 5 4 4 6 6 6 4 4 6 6 3 3 4 5
12 11 11 9 9 9 9 9 7 7 7 6 7 8 5 5 6 4 4 4 3 5 5 5 5 5 5 5 4 4 7 6
10 10 11 10 9 10 9 9 7 6 6 7 7 7 7 6 6 4 3 4 3 5 5 5 5 5 5 5 4 6 6 5
12 10 9 8 9 8 8 7 6 5 7 6 5 6 5 5 5 4 4 3 3 5 5 6 5 4 4 4 3 4 6 7
12 9 8 8 8 8 7 7 6 6 6 4 5 4 5 4 4 4 4 4 5 5 5 4 4 5 5 5 5 6 6 6
12 9 8 8 8 8 7 7 7 6 5 4 4 5 5 5 4 4 3 3 3 3 4 5 5 5 6 6 6 7 9 10
Wind_Direction
258 273 222 152 113 87 81 67 87 147 130 152 153 159 168 185 175 174 182 199 207 214 202 193 187 216 216 204 208 212 219 226
218 271 84 95 97 80 84 69 56 16 9 158 157 163 184 210 195 175 176 200 203 206 183 181 188 196 199 206 216 225 218 210
259 230 113 110 106 113 110 137 116 73 313 291 213 183 189 199 202 185 179 184 200 211 190 182 195 194 199 213 211 214 221 232
255 174 126 117 125 130 151 129 180 191 186 204 190 191 202 193 198 199 193 190 191 201 191 187 206 210 198 206 222 225 228 221
232 186 134 140 141 150 153 165 194 194 172 198 219 163 175 181 192 196 191 181 185 188 153 269 261 205 231 219 235 202 177 285
206 151 140 153 147 152 165 173 201 175 163 180 228 182 158 158 158 147 109 39 63 35 1 355 349 17 13 351 348 331 358 314
216 151 147 159 160 164 152 158 182 182 180 200 208 204 159 176 41 57 140 138 131 159 174 254 350 77 83 96 13 335 353 8
226 152 153 160 157 164 151 156 157 157 196 230 259 199 104 108 142 210 159 138 173 179 198 223 176 119 48 75 70 5 9 9
151 142 160 154 147 154 153 167 172 179 198 176 169 168 135 172 191 177 165 172 154 171 187 181 47 66 94 106 149 100 235 318
145 100 90 97 93 101 148 157 153 175 154 139 142 129 150 146 158 135 183 173 183 170 203 177 173 149 123 167 176 170 251 108
110 95 89 85 76 77 79 84 82 67 50 119 91 72 71 55 44 56 42 60 188 191 212 224 163 156 185 189 194 180 231 237
95 94 85 86 86 81 78 71 64 42 36 60 87 92 118 118 77 58 33 9 88 79 60 76 121 98 185 213 215 205 113 265
105 102 95 90 85 80 78 74 70 64 61 74 79 78 69 89 67 54 47 44 75 65 57 53 96 154 194 215 218 206 199 245
103 100 106 105 97 89 88 83 76 71 71 71 81 87 89 78 48 45 23 31 43 43 52 54 47 40 37 40 220 235 232 243
104 108 107 110 112 115 102 94 87 77 76 71 69 57 65 75 74 71 44 18 19 17 43 40 44 22 354 346 339 275 258 261
122 121 115 110 110 107 101 95 89 85 81 77 67 56 57 69 68 52 34 47 38 43 34 26 7 346 337 330 314 310 307 300
110 106 106 99 90 90 101 95 86 84 79 71 62 54 56 53 45 53 51 43 22 10 2 352 344 347 341 335 319 312 311 304
95 93 94 92 93 89 88 98 108 97 85 78 75 71 68 63 52 35 37 27 12 10 10 18 13 8 359 349 329 319 316 308
111 107 114 126 114 105 88 67 76 77 83 88 89 83 77 67 54 27 9 16 26 28 13 349 320 299 293 281 262 264 269 282
121 136 123 98 100 89 77 54 49 47 39 49 69 75 63 51 34 357 351 29 357 332 316 300 289 277 272 260 255 268 267 272